Weather History for Papa, Hungary

Change the Weather History Date:

Monday, October 14, 2013

  Actual Average Record
Temperature  
Mean Temperature 52 °F -  
Max Temperature 62 °F - - ()
Min Temperature 41 °F - - ()
Degree Days  
Heating Degree Days 14    
Growing Degree Days 2 (Base 50)    
Moisture  
Dew Point 48 °F    
Average Humidity 93    
Maximum Humidity 100    
Minimum Humidity 68    
Precipitation  
Precipitation 0.00 in - - ()
Sea Level Pressure  
Sea Level Pressure 30.15 in    
Wind  
Wind Speed 2 mph ()    
Max Wind Speed 4 mph    
Max Gust Speed -    
Visibility 4.1 miles    
Events Fog    
T = Trace of Precipitation, MM = Missing Value Source: Averaged Metar Reports

Daily Weather History Graph

Daily Weather History Graph

Search for Another Location

Airport:

Trip Planner

Search our weather history database for the weather conditions in past years. The results will help you decide how hot, cold, wet, or windy it might be!

Date:

Astronomy

Oct. 14, 2013 Rise Set
Actual Time 7:07 AM CEST 6:04 PM CEST
Civil Twilight 6:36 AM CEST 6:35 PM CEST
Nautical Twilight 6:00 AM CEST 7:10 PM CEST
Astronomical Twilight 5:25 AM CEST 7:45 PM CEST
Moon 3:39 PM CEST (10/14) 1:44 AM CEST (10/14)
Length of Visible Light 11h 58m
Length of Day
10h 57m
Waxing Gibbous, 77% of the Moon is Illuminated
Oct 14
Waxing Gibbous
Oct 19
Full
Oct 27
Last Quarter
Nov 3
New
Nov 10
First Quarter

Hourly Weather History & Observations

Time (CEST) Temp. Windchill Dew Point Humidity Pressure Visibility Wind Dir Wind Speed Gust Speed Precip Events Conditions
12:15 AM 42.8 °F - 42.8 °F 100% 30.18 in 3.7 mi ENE 2.2 mph - N/A   Unknown
12:45 AM 42.8 °F - 42.8 °F 100% 30.18 in 3.7 mi ESE 2.2 mph - N/A   Unknown
1:15 AM 42.8 °F - 42.8 °F 100% 30.18 in 3.7 mi East 2.2 mph - N/A   Unknown
1:45 AM 42.8 °F - 41.0 °F 93% 30.18 in 3.7 mi ENE 2.2 mph - N/A   Unknown
2:15 AM 42.8 °F - 42.8 °F 100% 30.18 in 3.7 mi Calm Calm - N/A   Unknown
2:45 AM 41.0 °F - 41.0 °F 100% 30.18 in 3.7 mi Calm Calm - N/A   Partly Cloudy
3:15 AM 41.0 °F - 41.0 °F 100% 30.18 in 3.7 mi Calm Calm - N/A   Scattered Clouds
3:45 AM 42.8 °F - 42.8 °F 100% 30.18 in 3.7 mi NNE 2.2 mph - N/A   Scattered Clouds
4:15 AM 44.6 °F - 44.6 °F 100% 30.18 in 3.7 mi North 2.2 mph - N/A   Scattered Clouds
4:45 AM 46.4 °F 44.4 °F 46.4 °F 100% 30.18 in 3.7 mi NNE 4.5 mph - N/A   Mostly Cloudy
5:15 AM 46.4 °F - 46.4 °F 100% 30.18 in 3.7 mi NNE 2.2 mph - N/A   Mostly Cloudy
5:45 AM 42.8 °F - 42.8 °F 100% 30.18 in 2.5 mi Calm Calm - N/A   Scattered Clouds
6:15 AM 44.6 °F - 44.6 °F 100% 30.18 in 1.9 mi NNW 2.2 mph - N/A   Partly Cloudy
6:45 AM 42.8 °F - 42.8 °F 100% 30.18 in 1.9 mi North 2.2 mph - N/A Fog Partly Cloudy
7:15 AM 42.8 °F - 42.8 °F 100% 30.18 in 1.9 mi Calm Calm - N/A Fog Scattered Clouds
7:45 AM 41.0 °F - 41.0 °F 100% 30.18 in 1.9 mi Calm Calm - N/A Fog Scattered Clouds
8:15 AM 44.6 °F - 44.6 °F 100% 30.18 in 1.9 mi Calm Calm - N/A   Scattered Clouds
8:42 AM 46.4 °F - 46.4 °F 100% 30.18 in 3.7 mi Calm Calm - N/A   Partly Cloudy
8:45 AM 46.4 °F - 46.4 °F 100% 30.18 in 3.7 mi Calm Calm - N/A   Partly Cloudy
9:15 AM 48.2 °F - 48.2 °F 100% 30.18 in 3.7 mi West 2.2 mph - N/A   Mostly Cloudy
9:45 AM 50.0 °F - 48.2 °F 94% 30.21 in 3.7 mi Calm Calm - N/A   Mostly Cloudy
10:15 AM 51.8 °F - 48.2 °F 88% 30.21 in 3.7 mi West 2.2 mph - N/A   Mostly Cloudy
10:45 AM 51.8 °F - 48.2 °F 88% 30.21 in 5.0 mi NW 2.2 mph - N/A   Mostly Cloudy
11:15 AM 53.6 °F - 50.0 °F 88% 30.21 in 5.0 mi Calm Calm - N/A   Mostly Cloudy
11:45 AM 55.4 °F - 50.0 °F 82% 30.18 in 5.0 mi Calm Calm - N/A   Mostly Cloudy
12:15 PM 57.2 °F - 50.0 °F 77% 30.18 in 6.2 mi Calm Calm - N/A   Mostly Cloudy
12:45 PM 57.2 °F - 50.0 °F 77% 30.18 in 6.2 mi Calm Calm - N/A   Scattered Clouds
1:15 PM 59.0 °F - 51.8 °F 77% 30.18 in 6.2 mi SE 2.2 mph - N/A   Scattered Clouds
1:45 PM 59.0 °F - 50.0 °F 72% 30.15 in 6.2 mi South 2.2 mph - N/A   Mostly Cloudy
2:15 PM 60.8 °F - 51.8 °F 72% 30.15 in 6.2 mi South 2.2 mph - N/A   Mostly Cloudy
2:45 PM 60.8 °F - 51.8 °F 72% 30.12 in 6.2 mi South 4.5 mph - N/A   Mostly Cloudy
3:15 PM 62.6 °F - 51.8 °F 68% 30.12 in 6.2 mi South 2.2 mph - N/A   Scattered Clouds
3:45 PM 62.6 °F - 51.8 °F 68% 30.12 in 6.2 mi West 4.5 mph - N/A   Scattered Clouds
4:15 PM 60.8 °F - 53.6 °F 77% 30.12 in 6.2 mi WNW 4.5 mph - N/A   Scattered Clouds
4:45 PM 59.0 °F - 55.4 °F 88% 30.12 in 6.2 mi West 4.5 mph - N/A   Scattered Clouds
5:15 PM 59.0 °F - 53.6 °F 82% 30.12 in 6.2 mi West 4.5 mph - N/A   Scattered Clouds
5:45 PM 57.2 °F - 53.6 °F 88% 30.12 in 6.2 mi WSW 2.2 mph - N/A   Scattered Clouds
6:15 PM 53.6 °F - 51.8 °F 94% 30.12 in 5.0 mi Calm Calm - N/A   Unknown
6:45 PM 51.8 °F - 51.8 °F 100% 30.12 in 5.0 mi ENE 2.2 mph - N/A   Unknown
7:15 PM 51.8 °F - 51.8 °F 100% 30.12 in 3.7 mi ENE 2.2 mph - N/A   Unknown
7:45 PM 51.8 °F - 50.0 °F 94% 30.12 in 3.7 mi East 2.2 mph - N/A   Unknown
8:15 PM 51.8 °F - 51.8 °F 100% 30.09 in 3.7 mi East 2.2 mph - N/A   Unknown
8:40 PM 51.8 °F - 51.8 °F 100% 30.09 in 3.1 mi East 2.2 mph - N/A   Overcast
8:45 PM 51.8 °F - 51.8 °F 100% 30.09 in 3.1 mi Calm Calm - N/A   Overcast
9:15 PM 53.6 °F - 51.8 °F 94% 30.09 in 3.1 mi East 4.5 mph - N/A   Overcast
9:45 PM 51.8 °F - 51.8 °F 100% 30.09 in 3.1 mi East 2.2 mph - N/A   Overcast
10:15 PM 51.8 °F - 51.8 °F 100% 30.09 in 3.1 mi East 4.5 mph - N/A   Overcast
10:45 PM 51.8 °F - 51.8 °F 100% 30.09 in 3.1 mi East 4.5 mph - N/A   Overcast
11:15 PM 50.0 °F - 50.0 °F 100% 30.09 in 3.1 mi East 2.2 mph - N/A   Overcast
11:45 PM 50.0 °F - 50.0 °F 100% 30.06 in 3.1 mi East 2.2 mph - N/A   Mostly Cloudy